This is the latest recevied weather packets stored in our database for station/object KC0AFB. If no packets are shown the sender has not sent any weather packets the latest 10 day(s).
| Time | Temp. | Humidity | Pressure | Rain* | Wind** | Luminosity | Snow |
|---|---|---|---|---|---|---|---|
| 1777651496 | 10.56° C | 47% | 1020.6 hPa | 0 mm | - | 663 W/m² | - |
| 1777651192 | 10.56° C | 48% | 1020.4 hPa | 0 mm | - | 657 W/m² | - |
| 1777650889 | 10° C | 48% | 1020.6 hPa | 0 mm | - | 632 W/m² | - |
| 1777650586 | 10° C | 49% | 1020.5 hPa | 0 mm | - | 642 W/m² | - |
| 1777650284 | 10° C | 49% | 1020.5 hPa | 0 mm | - | 613 W/m² | - |
| 1777649980 | 9.44° C | 51% | 1020.7 hPa | 0 mm | - | 580 W/m² | - |
| 1777649678 | 9.44° C | 52% | 1020.6 hPa | 0 mm | - | 567 W/m² | - |
| 1777649373 | 9.44° C | 52% | 1020.6 hPa | 0 mm | - | 579 W/m² | - |
| 1777649071 | 8.89° C | 54% | 1020.8 hPa | 0 mm | - | 560 W/m² | - |
| 1777648768 | 8.33° C | 53% | 1020.7 hPa | 0 mm | - | 75 W/m² | - |
| 1777648466 | 8.33° C | 53% | 1020.9 hPa | 0 mm | - | 72 W/m² | - |
| 1777648162 | 7.78° C | 55% | 1020.6 hPa | 0 mm | - | 75 W/m² | - |
| 1777647857 | 7.78° C | 54% | 1020.8 hPa | 0 mm | - | 482 W/m² | - |
| 1777647554 | 7.78° C | 55% | 1020.8 hPa | 0 mm | - | 464 W/m² | - |
| 1777647250 | 7.22° C | 59% | 1020.7 hPa | 0 mm | - | 425 W/m² | - |
| 1777646948 | 7.78° C | 56% | 1020.7 hPa | 0 mm | - | 406 W/m² | - |
| 1777646644 | 7.78° C | 54% | 1020.6 hPa | 0 mm | - | 377 W/m² | - |
| 1777646340 | 7.22° C | 53% | 1020.8 hPa | 0 mm | - | 340 W/m² | - |
| 1777646036 | 7.22° C | 57% | 1020.8 hPa | 0 mm | - | 319 W/m² | - |
| 1777645732 | 6.11° C | 57% | 1020.8 hPa | 0 mm | - | 306 W/m² | - |
| 1777645430 | 6.11° C | 55% | 1020.7 hPa | 0 mm | - | 302 W/m² | - |
| 1777645125 | 6.11° C | 57% | 1021 hPa | 0 mm | - | 269 W/m² | - |
| 1777644822 | 5.56° C | 59% | 1020.8 hPa | 0 mm | - | 256 W/m² | - |
| 1777644520 | 5.56° C | 60% | 1021 hPa | 0 mm | - | 256 W/m² | - |
| 1777644216 | 5.56° C | 59% | 1021.2 hPa | 0 mm | - | 234 W/m² | - |
* Rain latest hour (hover to see other rain measurements)
** Current wind speed in m/s (hover to see current wind gust speed)